Other Surface Observations
Issued by NWS

Home | Current Version | Previous Version | Text Only | Print | Product List | Glossary On
Versions: 1 2 3 4 5 6 7 8 9 10 11 12 13 14 15 16 17 18 19 20 21 22 23 24 25 26 27 28 29 30 31 32 33 34 35 36 37 38 39 40 41 42 43 44 45 46 47 48 49 50
000
SXUS52 KTAE 010619
OSOTAE
OSOTAE
North Florida/South Alabama/Southwest Georgia Weather Roundup
National Weather Service Tallahassee Florida
200 AM EDT SAT AUG 01 2015

Note: "fair" indicates few or no clouds below 12,000 feet with no
significant weather and/or obstructions to visibility.

!FLZ017-115-028-034-025-010700
...North Florida...

CITY           SKY/WX    TMP DP  RH WIND       PRES   REMARKS
TALLAHASSEE    CLOUDY    81  76  84 SE3       29.87F
APALACHICOLA   MOCLDY    81  77  88 S5        29.87F
PERRY          CLOUDY    76  76 100 SE6       29.90F
CROSS CITY       N/A     78  76  93 S5        29.91F
JACKSONVILLE   PTCLDY    76  75  97 S5        29.93F
$$

!FLZ112-006-005-002-011-010700
...Florida Panhandle...

CITY           SKY/WX    TMP DP  RH WIND       PRES   REMARKS
MARIANNA       CLOUDY    74  74 100 NW5       29.89F
BONIFAY        FAIR      75  73  93 NE3       29.90F
PANAMA CITY NW FAIR      79  76  90 E3        29.88F
TYNDALL AFB    MOCLDY    79  77  95 CALM      29.89S
TYND DRONE APT FAIR      78  77  96 CALM      29.88F
DE FUNIAK SPR  FAIR      76  75  96 CALM      29.90F
EGLIN AFB      MOCLDY    80  75  84 CALM      29.89F
DESTIN         CLOUDY    82  78  88 NE5       29.89F HX  91
HURLBURT       MOCLDY    77  73  88 NE1       29.87F
CRESTVIEW      MOCLDY    76  75  97 CALM      29.91F FOG
PENSACOLA      PTCLDY    76  73  91 N5        29.88F
$$

!ALZ063-066-010700
...South Alabama...

CITY           SKY/WX    TMP DP  RH WIND       PRES   REMARKS
DOTHAN         MOCLDY    74  72  93 CALM      29.94F
OZARK CAIRNS   MOCLDY    75  73  94 NE5       29.91F
FT RUCKER HELI MOCLDY    74  72  93 CALM      29.90F
RUCKER HELI 3  FAIR      74  72  94 N2        29.92F
RUCKER HELI 2  FAIR      74  74 100 N3        29.91F
FLORALA APT    MOCLDY    75  73  93 CALM      29.92F
ANDALUSIA      PTCLDY    78  73  84 CALM      29.91F
TROY           PTCLDY    75  72  90 CALM      29.94F
EUFALA         MOCLDY    76  75  97 CALM      29.92F
MOBILE         CLEAR     76  67  73 N6        29.92F
$$

!GAZ120>161-010700
...Southwest and South Central Georgia...

CITY           SKY/WX    TMP DP  RH WIND       PRES   REMARKS
THOMASVILLE    FAIR      72  72 100 E3        29.90F
BAINBRIDGE     CLOUDY    77  73  88 N5        29.88F
MOODY AFB      CLOUDY    75  73  93 SE1       29.89F
VALDOSTA       CLOUDY    76  76 100 CALM      29.89F
MOULTRIE       CLOUDY    75  72  88 E5        29.91F
BLAKELY        MOCLDY    73  73 100 CALM      29.91F
ALBANY         MOCLDY    76  74  93 N5        29.91F
TIFTON         FAIR      74  74  98 CALM      29.91F
FITZGERALD     FAIR      76  75  96 CALM      29.94F FOG
CORDELE        FAIR      75  74  98 CALM      29.92F
AMERICUS       FOG       72  72 100 N3        29.94F VSB 1/4
HOMERVILLE     FAIR      77  77 100 CALM      29.92S
$$

!GMZ750-755-770-775-010700
...Coastal and Buoy Obs...

STATION/POSITION TIME  TEMP    WIND        PRES    VSBY  WAVE
                       AIR SEA DIR/SP/G                  HT/PER
                 (UTC) (F)     (DEG/KT/KT) (MB)    (MI)  (FT/S)
KEATON BEACH     0600   78     160/  7/  9 1012.6F
CEDAR KEY        0600   83     220/ 15/ 26 1013.4F
C TOWER          0600   83     170/ 10/ 11 1011.8F
APALACHICOLA BUO 0550   83 85  220/ 21/ 25 1012.6F         5/ 7
PANAMA CITY BUOY 0550   82 86  180/ 14/ 16 1011.9F         3/ 6
MOBILE BUOY      0550   82 88   80/ 19/ 37 1011.7F         1/ 4
ORANGE BCH AL BU 0550   84 86   30/  8/  8 1011.3F         1
$$



USA.gov is the U.S. government's official web portal to all federal, state and local government web resources and services.